EW7512 Weather Reports


Display with metric or nautical units.
time (UTC)temp
F
wind
direction
speed
MPH
gust
MPH
rain 1hr
in
rain 24hr
in
rain mn
in
humidity
%
barometer
mb
20260510150526 70 69 1.0 4.0 0.00 0.00 0.00 63 1015.8
20260510150036 70 62 0.0 4.0 0.00 0.00 0.00 64 1015.8
20260510145525 70 59 0.0 3.0 0.00 0.00 0.00 64 1016.0
20260510145025 70 61 1.0 3.0 0.00 0.00 0.00 64 1016.0
20260510144530 70 90 0.0 4.0 0.00 0.00 0.00 65 1016.2
20260510144025 70 88 2.0 4.0 0.00 0.00 0.00 65 1016.1
20260510143525 70 124 0.0 4.0 0.00 0.00 0.00 65 1016.0
20260510143034 70 125 1.0 4.0 0.00 0.00 0.00 65 1016.1
20260510142528 69 175 1.0 6.0 0.00 0.00 0.00 66 1016.1
20260510142024 69 155 1.0 6.0 0.00 0.00 0.00 66 1015.8
20260510141525 69 90 2.0 5.0 0.00 0.00 0.00 66 1015.8
20260510141025 69 98 3.0 6.0 0.00 0.00 0.00 66 1015.6
20260510140524 69 105 2.0 6.0 0.00 0.00 0.00 66 1015.6
20260510140024 69 120 3.0 7.0 0.00 0.00 0.00 66 1015.6
20260510135526 69 114 3.0 8.0 0.00 0.00 0.00 66 1015.8
20260510135023 69 124 4.0 8.0 0.00 0.00 0.00 66 1015.6
20260510134524 69 115 4.0 8.0 0.00 0.00 0.00 66 1015.4
20260510134023 69 120 5.0 7.0 0.00 0.00 0.00 66 1015.5
20260510133523 69 79 2.0 8.0 0.00 0.00 0.00 66 1015.8
20260510133023 70 102 3.0 9.0 0.00 0.00 0.00 65 1015.8
20260510132524 71 111 4.0 9.0 0.00 0.00 0.00 64 1015.9
20260510132022 71 108 0.0 11.0 0.00 0.00 0.00 64 1015.9
20260510131526 71 144 4.0 11.0 0.00 0.00 0.00 63 1015.4
20260510131020 73 87 2.0 4.0 0.00 0.00 0.00 60 1015.4
20260510130520 72 51 1.0 4.0 0.00 0.00 0.00 62 1016.4
20260510130020 72 122 1.0 9.0 0.00 0.00 0.00 61 1016.6
20260510125520 74 137 3.0 9.0 0.00 0.00 0.00 58 1016.5
20260510125020 74 57 1.0 8.0 0.00 0.00 0.00 59 1016.5
20260510124530 75 78 3.0 6.0 0.00 0.00 0.00 56 1016.6
20260510124022 75 120 2.0 6.0 0.00 0.00 0.00 57 1016.7
20260510123620 75 121 2.0 5.0 0.00 0.00 0.00 56 1016.7
20260510123019 75 83 1.0 6.0 0.00 0.00 0.00 55 1016.8
20260510122519 76 104 2.0 8.0 0.00 0.00 0.00 55 1016.9
20260510122020 75 52 3.0 8.0 0.00 0.00 0.00 55 1017.0
20260510121519 75 144 2.0 7.0 0.00 0.00 0.00 56 1017.0
20260510121017 76 130 2.0 7.0 0.00 0.00 0.00 56 1017.1
20260510120518 74 121 2.0 7.0 0.00 0.00 0.00 59 1017.1
20260510120018 74 114 2.0 7.0 0.00 0.00 0.00 60 1017.1
20260510115517 73 63 3.0 8.0 0.00 0.00 0.00 62 1017.2
20260510115018 73 92 4.0 10.0 0.00 0.00 0.00 60 1017.2
20260510114517 72 113 3.0 8.0 0.00 0.00 0.00 61 1017.1
20260510114018 72 148 3.0 8.0 0.00 0.00 0.00 61 1017.1
20260510113515 72 138 4.0 7.0 0.00 0.00 0.00 60 1017.1
20260510113016 72 134 3.0 7.0 0.00 0.00 0.00 62 1017.0
20260510112517 72 83 4.0 7.0 0.00 0.00 0.00 62 1017.0
20260510112016 72 126 3.0 7.0 0.00 0.00 0.00 62 1017.0
20260510111515 72 117 3.0 8.0 0.00 0.00 0.00 61 1017.2
20260510111015 72 94 4.0 8.0 0.00 0.00 0.00 62 1017.1
20260510110515 72 107 4.0 10.0 0.00 0.00 0.00 61 1017.2
20260510110015 71 63 4.0 10.0 0.00 0.00 0.00 62 1017.1
20260510105515 71 94 3.0 9.0 0.00 0.00 0.00 63 1017.1
20260510105015 72 114 2.0 9.0 0.00 0.00 0.00 62 1017.2
20260510104515 72 84 4.0 9.0 0.00 0.00 0.00 62 1017.3
20260510104015 72 67 4.0 6.0 0.00 0.00 0.00 61 1017.4
20260510103514 72 146 3.0 7.0 0.00 0.00 0.00 61 1017.5
20260510103015 73 108 2.0 7.0 0.00 0.00 0.00 58 1017.5
20260510102513 73 40 1.0 5.0 0.00 0.00 0.00 60 1017.5
20260510102013 74 101 1.0 5.0 0.00 0.00 0.00 59 1017.5
20260510101513 74 171 2.0 5.0 0.00 0.00 0.00 58 1017.5
20260510101012 74 134 2.0 5.0 0.00 0.00 0.00 58 1017.5
20260510100512 75 51 1.0 4.0 0.00 0.00 0.00 59 1017.7
20260510100027 75 87 2.0 4.0 0.00 0.00 0.00 59 1017.8
20260510095511 74 144 2.0 4.0 0.00 0.00 0.00 59 1017.8
20260510095011 74 65 1.0 6.0 0.00 0.00 0.00 60 1017.7
20260510094515 73 122 2.0 4.0 0.00 0.00 0.00 59 1017.7
20260510094010 74 94 0.0 3.0 0.00 0.00 0.00 58 1017.8
20260510093509 75 153 1.0 5.0 0.00 0.00 0.00 54 1017.8
20260510093010 75 141 2.0 5.0 0.00 0.00 0.00 57 1017.7
20260510092509 74 91 2.0 6.0 0.00 0.00 0.00 60 1017.7
20260510092009 75 139 1.0 6.0 0.00 0.00 0.00 60 1017.7
20260510091507 74 125 1.0 6.0 0.00 0.00 0.00 59 1017.7
20260510091007 75 116 2.0 6.0 0.00 0.00 0.00 58 1017.7
20260510090507 73 67 2.0 5.0 0.00 0.00 0.00 62 1017.7
20260510090007 73 128 2.0 7.0 0.00 0.00 0.00 61 1017.7
20260510085507 73 141 1.0 6.0 0.00 0.00 0.00 59 1017.7
20260510085004 73 43 0.0 5.0 0.00 0.00 0.00 59 1017.7
20260510084504 74 37 2.0 5.0 0.00 0.00 0.00 58 1017.7
20260510084004 73 34 0.0 4.0 0.00 0.00 0.00 59 1017.7
20260510083504 73 32 1.0 7.0 0.00 0.00 0.00 59 1017.7
20260510083016 74 30 2.0 7.0 0.00 0.00 0.00 58 1017.7
20260510082504 73 246 2.0 6.0 0.00 0.00 0.00 57 1017.7
20260510082001 73 360 2.0 8.0 0.00 0.00 0.00 58 1017.7
20260510081600 74 331 3.0 8.0 0.00 0.00 0.00 59 1017.6
20260510081059 73 360 2.0 6.0 0.00 0.00 0.00 60 1017.6
20260510080559 73 355 2.0 6.0 0.00 0.00 0.00 60 1017.6
20260510080058 72 34 1.0 6.0 0.00 0.00 0.00 60 1017.5
20260510075555 72 48 2.0 6.0 0.00 0.00 0.00 60 1017.3
20260510075054 73 58 3.0 8.0 0.00 0.00 0.00 59 1017.2
20260510074553 72 42 2.0 6.0 0.00 0.00 0.00 61 1017.1
20260510074051 72 54 3.0 5.0 0.00 0.00 0.00 61 1017.2
20260510073550 71 94 2.0 6.0 0.00 0.00 0.00 61 1017.2
20260510073100 71 16 4.0 6.0 0.00 0.00 0.00 60 1017.3
20260510072548 71 43 1.0 8.0 0.00 0.00 0.00 60 1017.4
20260510072046 72 319 4.0 8.0 0.00 0.00 0.00 60 1017.3
20260510071546 71 46 2.0 8.0 0.00 0.00 0.00 64 1017.2
20260510071043 71 20 3.0 6.0 0.00 0.00 0.00 62 1017.2
20260510070542 71 33 2.0 6.0 0.00 0.00 0.00 62 1017.1
20260510070046 71 32 3.0 6.0 0.00 0.00 0.00 63 1017.2
20260510065538 71 58 1.0 7.0 0.00 0.00 0.00 63 1017.2
20260510065038 70 350 3.0 7.0 0.00 0.00 0.00 63 1017.1
20260510064538 70 20 3.0 6.0 0.00 0.00 0.00 63 1017.1
20260510064035 71 49 3.0 6.0 0.00 0.00 0.00 63 1017.0
20260510063533 70 57 2.0 6.0 0.00 0.00 0.00 65 1017.0
20260510063035 70 59 4.0 6.0 0.00 0.00 0.00 65 1017.1
20260510062531 70 63 2.0 7.0 0.00 0.00 0.00 65 1017.1
20260510062032 70 84 2.0 7.0 0.00 0.00 0.00 67 1017.0
20260510061528 68 61 2.0 4.0 0.00 0.00 0.00 67 1017.0
20260510061031 68 73 2.0 5.0 0.00 0.00 0.00 67 1017.1
20260510060528 68 43 2.0 5.0 0.00 0.00 0.00 68 1017.1
20260510060025 68 65 2.0 4.0 0.00 0.00 0.00 68 1017.0
20260510055525 68 70 2.0 4.0 0.00 0.00 0.00 69 1016.9
20260510055024 67 66 1.0 4.0 0.00 0.00 0.00 70 1016.9
20260510054524 67 42 2.0 3.0 0.00 0.00 0.00 69 1017.0
20260510054022 67 42 1.0 3.0 0.00 0.00 0.00 69 1017.0
20260510053522 66 42 1.0 3.0 0.00 0.00 0.00 70 1016.9
20260510053024 66 42 0.0 3.0 0.00 0.00 0.00 70 1016.7
20260510052517 66 42 1.0 3.0 0.00 0.00 0.00 69 1016.7
20260510052017 66 42 0.0 2.0 0.00 0.00 0.00 70 1016.6
20260510051515 65 42 0.0 3.0 0.00 0.00 0.00 71 1016.6
20260510051014 65 42 1.0 3.0 0.00 0.00 0.00 71 1016.5
20260510050516 65 42 1.0 3.0 0.00 0.00 0.00 72 1016.5
20260510050012 64 5 0.0 3.0 0.00 0.00 0.00 72 1016.5
20260510045514 64 5 1.0 3.0 0.00 0.00 0.00 73 1016.5
20260510045010 64 360 1.0 3.0 0.00 0.00 0.00 74 1016.5
20260510044518 64 360 0.0 4.0 0.00 0.00 0.00 74 1016.6
20260510044009 64 360 1.0 4.0 0.00 0.00 0.00 72 1016.6
20260510043507 63 360 1.0 2.0 0.00 0.00 0.00 73 1016.7
20260510043007 63 360 0.0 1.0 0.00 0.00 0.00 73 1016.6
20260510042506 63 360 0.0 0.0 0.00 0.00 0.00 74 1016.5
20260510042005 62 360 0.0 0.0 0.00 0.00 0.00 75 1016.4
20260510041503 62 360 0.0 1.0 0.00 0.00 0.00 74 1016.5
20260510041001 62 360 0.0 2.0 0.00 0.00 0.00 73 1016.4
20260510040600 61 360 0.0 2.0 0.00 0.00 0.00 74 1016.4
20260510035558 61 360 0.0 0.0 0.00 0.00 0.00 74 1016.2
20260510035057 61 360 0.0 0.0 0.00 0.00 0.00 73 1016.2
20260510034559 61 360 0.0 0.0 0.00 0.00 0.00 73 1016.1
20260510034055 61 360 0.0 0.0 0.00 0.00 0.00 74 1016.2
20260510033554 60 360 0.0 2.0 0.00 0.00 0.00 75 1016.1
20260510033126 60 360 0.0 2.0 0.00 0.00 0.00 76 1016.2
20260510032553 60 360 0.0 2.0 0.00 0.00 0.00 76 1016.1
20260510032053 59 360 0.0 2.0 0.00 0.00 0.00 76 1016.1
20260510031610 60 360 0.0 4.0 0.00 0.00 0.00 75 1016.1
20260510031053 60 10 1.0 4.0 0.00 0.00 0.00 75 1016.2
20260510030651 60 9 1.0 4.0 0.00 0.00 0.00 76 1016.2
20260510030058 59 360 2.0 4.0 0.00 0.00 0.00 78 1016.1
20260510025552 59 20 0.0 4.0 0.00 0.00 0.00 79 1016.1
20260510025052 59 360 1.0 4.0 0.00 0.00 0.00 80 1016.0
20260510024552 58 360 0.0 3.0 0.00 0.00 0.00 81 1016.0
20260510024054 58 360 0.0 1.0 0.00 0.00 0.00 82 1015.9
20260510023551 58 360 0.0 1.0 0.00 0.00 0.00 82 1015.9
20260510023050 58 360 0.0 1.0 0.00 0.00 0.00 81 1015.9
20260510022550 58 360 0.0 1.0 0.00 0.00 0.00 81 1016.0
20260510022051 58 360 0.0 3.0 0.00 0.00 0.00 80 1015.9
20260510021550 58 360 1.0 3.0 0.00 0.00 0.00 80 1015.8
20260510021048 58 360 0.0 2.0 0.00 0.00 0.00 79 1015.8
20260510020548 59 360 0.0 3.0 0.00 0.00 0.00 79 1015.9
20260510020050 59 360 0.0 3.0 0.00 0.00 0.00 78 1015.9
20260510015548 58 360 0.0 2.0 0.00 0.00 0.00 78 1015.8
20260510015048 58 360 0.0 2.0 0.00 0.00 0.00 79 1015.8
20260510014550 58 360 0.0 2.0 0.00 0.00 0.00 79 1015.8
20260510014047 58 360 0.0 3.0 0.00 0.00 0.00 78 1016.0
20260510013546 58 16 1.0 4.0 0.00 0.00 0.00 77 1016.0
20260510013045 59 360 1.0 4.0 0.00 0.00 0.00 77 1015.9
20260510012546 59 22 2.0 4.0 0.00 0.00 0.00 76 1015.8
20260510012042 59 360 1.0 2.0 0.00 0.00 0.00 75 1015.9
20260510011545 60 360 0.0 2.0 0.00 0.00 0.00 73 1015.8
20260510011043 60 349 0.0 2.0 0.00 0.00 0.00 72 1015.8
20260510010542 61 360 0.0 2.0 0.00 0.00 0.00 72 1015.7
20260510010042 61 360 0.0 0.0 0.00 0.00 0.00 72 1015.7
20260510005542 60 360 0.0 0.0 0.00 0.00 0.00 73 1015.6
20260510005041 60 360 0.0 0.0 0.00 0.00 0.00 73 1015.6
20260510004542 61 360 0.0 0.0 0.00 0.00 0.00 73 1015.7
20260510004042 61 360 0.0 0.0 0.00 0.00 0.00 73 1015.6
20260510003542 61 360 0.0 0.0 0.00 0.00 0.00 72 1015.6
20260510003041 61 350 0.0 0.0 0.00 0.00 0.00 71 1015.6
20260510002543 61 350 0.0 0.0 0.00 0.00 0.00 71 1015.6
20260510002039 62 350 0.0 1.0 0.00 0.00 0.00 71 1015.6
20260510001543 62 350 0.0 1.0 0.00 0.00 0.00 72 1015.6
20260510001039 62 349 0.0 2.0 0.00 0.00 0.00 72 1015.7
20260510000542 61 350 0.0 2.0 0.00 0.00 0.00 73 1015.7
20260510000058 61 349 0.0 2.0 0.00 0.00 0.00 73 1015.7
20260509235538 61 350 0.0 2.0 0.00 0.00 0.00 72 1015.8
20260509235037 61 348 0.0 0.0 0.00 0.00 0.00 72 1015.8
20260509234549 62 348 0.0 1.0 0.00 0.00 0.00 72 1015.8
20260509234037 62 348 0.0 2.0 0.00 0.00 0.00 71 1015.8
20260509233538 62 360 0.0 2.0 0.00 0.00 0.00 71 1015.9
20260509233035 62 360 0.0 5.0 0.00 0.00 0.00 72 1015.9
20260509232535 61 9 2.0 5.0 0.00 0.00 0.00 72 1016.0
20260509232033 61 17 1.0 2.0 0.00 0.00 0.00 72 1016.0
20260509231533 61 17 0.0 4.0 0.00 0.00 0.00 72 1016.0
20260509231032 61 17 1.0 5.0 0.00 0.00 0.00 72 1016.1
20260509230535 60 350 2.0 5.0 0.00 0.00 0.00 73 1016.1
20260509230036 60 346 1.0 4.0 0.00 0.00 0.00 73 1016.2
20260509225532 60 344 1.0 5.0 0.00 0.00 0.00 73 1016.2
20260509225030 60 360 2.0 5.0 0.00 0.00 0.00 73 1016.2
20260509224530 60 360 0.0 5.0 0.00 0.00 0.00 71 1016.3
20260509224030 61 360 2.0 6.0 0.00 0.00 0.00 71 1016.3
20260509223531 60 355 2.0 6.0 0.00 0.00 0.00 71 1016.3
20260509223030 60 355 3.0 6.0 0.00 0.00 0.00 71 1016.3
20260509222529 60 13 2.0 6.0 0.00 0.00 0.00 71 1016.3
20260509222035 60 349 1.0 4.0 0.00 0.00 0.00 70 1016.3
20260509221529 60 34 1.0 2.0 0.00 0.00 0.00 70 1016.4
20260509221029 60 360 0.0 2.0 0.00 0.00 0.00 70 1016.3
20260509220528 60 30 0.0 3.0 0.00 0.00 0.00 71 1016.4
20260509220028 60 360 0.0 3.0 0.00 0.00 0.00 72 1016.4
20260509215528 60 14 1.0 4.0 0.00 0.00 0.00 72 1016.4
20260509215031 59 360 0.0 2.0 0.00 0.00 0.00 73 1016.4
20260509214531 60 50 0.0 2.0 0.00 0.00 0.00 72 1016.4
20260509214027 60 360 0.0 3.0 0.00 0.00 0.00 72 1016.5
20260509213529 60 360 0.0 3.0 0.00 0.00 0.00 71 1016.5
20260509213027 60 52 0.0 2.0 0.00 0.00 0.00 71 1016.5
20260509212526 60 53 0.0 4.0 0.00 0.00 0.00 71 1016.4
20260509212026 60 50 0.0 4.0 0.00 0.00 0.00 70 1016.5
20260509211526 61 20 0.0 4.0 0.00 0.00 0.00 70 1016.5
20260509211025 61 19 0.0 2.0 0.00 0.00 0.00 70 1016.4
20260509210524 60 43 0.0 0.0 0.00 0.00 0.00 74 1016.4
20260509210028 60 334 0.0 0.0 0.00 0.00 0.00 74 1016.3
20260509205522 60 334 0.0 0.0 0.00 0.00 0.00 73 1016.3
20260509205022 60 335 0.0 2.0 0.00 0.00 0.00 73 1016.2
20260509204526 60 331 0.0 2.0 0.00 0.00 0.00 73 1016.2
20260509204025 60 360 1.0 3.0 0.00 0.00 0.00 75 1016.2
20260509203521 59 360 1.0 4.0 0.00 0.00 0.00 75 1016.1
20260509203021 60 18 2.0 4.0 0.00 0.00 0.00 74 1016.1
20260509202521 61 42 0.0 3.0 0.00 0.00 0.00 74 1016.0
20260509202021 61 44 0.0 3.0 0.00 0.00 0.00 74 1015.9
20260509201521 60 44 0.0 1.0 0.00 0.00 0.00 74 1015.9
20260509201020 60 43 0.0 0.0 0.00 0.00 0.00 74 1016.0
20260509200523 60 360 0.0 0.0 0.00 0.00 0.00 74 1016.0
20260509200021 60 360 0.0 1.0 0.00 0.00 0.00 74 1015.9
20260509195522 60 360 0.0 0.0 0.00 0.00 0.00 74 1015.9
20260509195020 60 360 0.0 0.0 0.00 0.00 0.00 74 1015.8
20260509194523 60 360 0.0 0.0 0.00 0.00 0.00 74 1015.9
20260509194021 60 360 0.0 0.0 0.00 0.00 0.00 73 1015.8
20260509193519 61 360 0.0 1.0 0.00 0.00 0.00 73 1015.9
20260509193025 61 360 0.0 1.0 0.00 0.00 0.00 73 1015.8
20260509192519 61 360 0.0 1.0 0.00 0.00 0.00 73 1015.8
20260509192019 61 360 0.0 1.0 0.00 0.00 0.00 72 1015.8
20260509191525 61 360 0.0 1.0 0.00 0.00 0.00 72 1015.8
20260509191019 61 360 0.0 2.0 0.00 0.00 0.00 72 1015.8
20260509190518 61 360 0.0 2.0 0.00 0.00 0.00 71 1015.8
20260509190021 61 360 0.0 2.0 0.00 0.00 0.00 71 1015.8
20260509185520 61 54 0.0 2.0 0.00 0.00 0.00 71 1015.8
20260509185020 61 360 0.0 2.0 0.00 0.00 0.00 71 1015.7
20260509184532 61 360 0.0 2.0 0.00 0.00 0.00 70 1015.6
20260509184019 62 360 0.0 2.0 0.00 0.00 0.00 70 1015.6
20260509183518 62 360 0.0 0.0 0.00 0.00 0.00 69 1015.6
20260509183019 62 360 0.0 2.0 0.00 0.00 0.00 68 1015.5
20260509182518 62 360 0.0 2.0 0.00 0.00 0.00 68 1015.5
20260509182017 62 360 0.0 2.0 0.00 0.00 0.00 68 1015.4
20260509181517 62 360 0.0 2.0 0.00 0.00 0.00 67 1015.3
20260509181018 62 360 0.0 2.0 0.00 0.00 0.00 66 1015.3
20260509180518 63 360 0.0 3.0 0.00 0.00 0.00 65 1015.2
20260509180018 63 360 0.0 3.0 0.00 0.00 0.00 65 1015.2
20260509175517 63 360 0.0 2.0 0.00 0.00 0.00 64 1015.0
20260509175017 63 360 1.0 2.0 0.00 0.00 0.00 63 1014.9
20260509174517 64 360 0.0 2.0 0.00 0.00 0.00 63 1014.8
20260509174017 64 90 0.0 2.0 0.00 0.00 0.00 62 1014.8
20260509173516 64 88 0.0 2.0 0.00 0.00 0.00 61 1014.9
20260509173018 64 360 0.0 1.0 0.00 0.00 0.00 60 1014.8
20260509172516 65 360 0.0 2.0 0.00 0.00 0.00 59 1014.8
20260509172016 65 360 0.0 2.0 0.00 0.00 0.00 59 1014.8
20260509171518 65 360 0.0 3.0 0.00 0.00 0.00 58 1014.7
20260509171015 65 360 0.0 3.0 0.00 0.00 0.00 58 1014.7
20260509170516 66 94 0.0 3.0 0.00 0.00 0.00 57 1014.7
20260509170016 66 106 0.0 2.0 0.00 0.00 0.00 56 1014.7
20260509165515 66 77 0.0 2.0 0.00 0.00 0.00 55 1014.8
20260509165015 67 360 0.0 3.0 0.00 0.00 0.00 54 1014.7
20260509164517 67 360 0.0 3.0 0.00 0.00 0.00 53 1014.7
20260509164015 67 360 1.0 3.0 0.00 0.00 0.00 52 1014.7
20260509163522 68 360 1.0 3.0 0.00 0.00 0.00 51 1014.6
20260509163016 68 184 0.0 3.0 0.00 0.00 0.00 50 1014.7
20260509162515 68 360 0.0 3.0 0.00 0.00 0.00 49 1014.6
20260509162016 69 96 1.0 3.0 0.00 0.00 0.00 48 1014.6
20260509161515 69 105 1.0 3.0 0.00 0.00 0.00 47 1014.5
20260509161014 69 49 0.0 3.0 0.00 0.00 0.00 47 1014.5
20260509160514 69 355 1.0 4.0 0.00 0.00 0.00 46 1014.4
20260509160016 70 72 1.0 6.0 0.00 0.00 0.00 45 1014.4
20260509155514 70 107 0.0 4.0 0.00 0.00 0.00 44 1014.4
20260509155013 70 69 0.0 3.0 0.00 0.00 0.00 44 1014.5
20260509154516 71 75 1.0 4.0 0.00 0.00 0.00 43 1014.5
20260509154014 71 106 1.0 6.0 0.00 0.00 0.00 42 1014.5
20260509153514 72 22 1.0 6.0 0.00 0.00 0.00 42 1014.5
20260509153028 72 33 2.0 6.0 0.00 0.00 0.00 41 1014.4
20260509152512 72 46 1.0 6.0 0.00 0.00 0.00 40 1014.4
20260509152022 73 48 1.0 4.0 0.00 0.00 0.00 39 1014.3
20260509151513 73 349 1.0 5.0 0.00 0.00 0.00 39 1014.4
20260509151011 73 48 1.0 5.0 0.00 0.00 0.00 40 1014.3